Location: Arrodets-la-Barthe
(43.0306°N, 0.2829°E)
Time: 19:52:09
(UTC+00:00)

ATLAS 5 CENTAUR R/B - Pass Details

Date: 24 October 2021
Orbit: 497 x 1159 km, 63.4° (Epoch: 25 November)

Event Time Altitude Azimuth Distance (km) Brightness Sun altitude
Rises 17:47:22 0° 245° (WSW) 2,602 6.5 -9.0°
Reaches altitude 10° 17:49:39 10° 258° (WSW) 1,758 5.6 -9.4°
Maximum altitude 17:53:03 28° 319° (NW) 1,070 3.2 -10.0°
Drops below altitude 10° 17:56:49 10° 19° (NNE) 1,972 3.9 -10.7°
Enters shadow 17:59:26 - 30° (NNE) 2,948 4.7 -11.1°
